DLH2LN EDDF-LJLJ

Flight info

Callsign DLH2LN
Flight time 1h 1m
Altitude 35000
Route CINDY8S/18 CINDY Z74 LAMPU DCT NOMBO Y161 MAH L173 OTT M867 RADIZ DCT LUMUS LUMUS4L
Aircraft A320/M-SDE3FGHIRWY/LB1

Departure

Time 2026-05-07 10:23
Airport Frankfurt Main Airport (EDDF)

Arrival

Time 2026-05-07 11:24
Airport Ljubljana Jože Pučnik Airport (LJLJ)
Time Latitude Longitude Altitude Speed Heading
2026-05-07 10:02 50.04910 8.58866 363 ft 0 kts 160°
2026-05-07 10:12 50.04911 8.58866 362 ft 1 kts 160°
2026-05-07 10:12 50.04926 8.58857 364 ft 3 kts 160°
2026-05-07 10:13 50.04944 8.58846 361 ft 3 kts 161°
2026-05-07 10:13 50.04963 8.58839 363 ft 3 kts 180°
2026-05-07 10:13 50.04982 8.58843 360 ft 3 kts 212°
2026-05-07 10:13 50.04993 8.58860 363 ft 2 kts 248°
2026-05-07 10:14 50.04998 8.58878 360 ft 3 kts 250°
2026-05-07 10:14 50.05001 8.58890 360 ft 0 kts 250°
2026-05-07 10:15 50.04990 8.58848 360 ft 6 kts 244°
2026-05-07 10:16 50.04974 8.58770 366 ft 12 kts 256°
2026-05-07 10:16 50.04938 8.58615 362 ft 20 kts 249°
2026-05-07 10:16 50.04888 8.58405 364 ft 22 kts 250°
2026-05-07 10:16 50.04832 8.58178 360 ft 24 kts 250°
2026-05-07 10:17 50.04749 8.57948 358 ft 25 kts 219°
2026-05-07 10:17 50.04662 8.57713 360 ft 26 kts 252°
2026-05-07 10:17 50.04598 8.57439 361 ft 28 kts 250°
2026-05-07 10:17 50.04530 8.57150 361 ft 29 kts 249°
2026-05-07 10:18 50.04459 8.56854 361 ft 29 kts 249°
2026-05-07 10:18 50.04386 8.56550 359 ft 31 kts 250°
2026-05-07 10:18 50.04310 8.56231 363 ft 32 kts 249°
2026-05-07 10:18 50.04232 8.55908 358 ft 33 kts 249°
2026-05-07 10:19 50.04152 8.55574 355 ft 33 kts 249°
2026-05-07 10:19 50.04071 8.55235 355 ft 33 kts 250°
2026-05-07 10:19 50.03992 8.54899 355 ft 33 kts 250°
2026-05-07 10:19 50.03908 8.54554 357 ft 34 kts 249°
2026-05-07 10:20 50.03852 8.54349 350 ft 20 kts 232°
2026-05-07 10:20 50.03785 8.54155 350 ft 21 kts 247°
2026-05-07 10:20 50.03733 8.53916 349 ft 30 kts 245°
2026-05-07 10:20 50.03647 8.53594 346 ft 33 kts 249°
2026-05-07 10:21 50.03567 8.53265 339 ft 32 kts 250°
2026-05-07 10:21 50.03490 8.52938 335 ft 31 kts 250°
2026-05-07 10:21 50.03421 8.52677 335 ft 20 kts 252°
2026-05-07 10:21 50.03384 8.52595 334 ft 7 kts 192°
2026-05-07 10:22 50.03380 8.52595 333 ft 0 kts 184°
2026-05-07 10:22 50.03248 8.52593 335 ft 58 kts 179°
2026-05-07 10:23 50.02592 8.52603 335 ft 127 kts 179°
2026-05-07 10:23 50.01544 8.52628 465 ft 167 kts 179°
2026-05-07 10:23 50.00366 8.52665 1212 ft 168 kts 181°
2026-05-07 10:23 49.99169 8.52668 1852 ft 182 kts 181°
2026-05-07 10:24 49.97824 8.52740 2256 ft 205 kts 169°
2026-05-07 10:24 49.96473 8.53724 2663 ft 226 kts 138°
2026-05-07 10:24 49.95528 8.55715 3305 ft 236 kts 117°
2026-05-07 10:24 49.94725 8.57977 4201 ft 239 kts 117°
2026-05-07 10:25 49.94114 8.60378 5181 ft 242 kts 100°
2026-05-07 10:25 49.93937 8.63073 5707 ft 264 kts 91°
2026-05-07 10:25 49.93802 8.65993 6520 ft 276 kts 97°
2026-05-07 10:25 49.93215 8.68875 7389 ft 284 kts 116°
2026-05-07 10:26 49.92027 8.71363 8286 ft 290 kts 137°
2026-05-07 10:26 49.90425 8.73250 9221 ft 294 kts 145°
2026-05-07 10:26 49.88820 8.75286 10130 ft 299 kts 134°
2026-05-07 10:26 49.87534 8.77869 10682 ft 316 kts 120°
2026-05-07 10:27 49.86420 8.80960 11089 ft 336 kts 118°
2026-05-07 10:27 49.85274 8.84173 11819 ft 343 kts 119°
2026-05-07 10:27 49.84109 8.87439 12628 ft 348 kts 119°
2026-05-07 10:27 49.82926 8.90731 13471 ft 352 kts 119°
2026-05-07 10:28 49.81736 8.94016 14257 ft 355 kts 119°
2026-05-07 10:28 49.80516 8.97364 14997 ft 358 kts 119°
2026-05-07 10:28 49.79283 9.00745 15721 ft 362 kts 119°
2026-05-07 10:28 49.78031 9.04170 16446 ft 366 kts 119°
2026-05-07 10:29 49.76787 9.07639 17152 ft 370 kts 116°
2026-05-07 10:29 49.75864 9.11331 17827 ft 375 kts 105°
2026-05-07 10:29 49.75185 9.15256 18505 ft 378 kts 109°
2026-05-07 10:30 49.72624 9.22418 19709 ft 385 kts 130°
2026-05-07 10:30 49.70856 9.25563 20319 ft 389 kts 131°
2026-05-07 10:30 49.69084 9.28686 20932 ft 392 kts 131°
2026-05-07 10:30 49.67267 9.31879 21541 ft 396 kts 131°
2026-05-07 10:31 49.65436 9.35091 22128 ft 400 kts 131°
2026-05-07 10:31 49.63589 9.38338 22715 ft 404 kts 132°
2026-05-07 10:31 49.61581 9.41345 23287 ft 408 kts 141°
2026-05-07 10:31 49.59237 9.43840 23808 ft 410 kts 150°
2026-05-07 10:32 49.56758 9.46100 24295 ft 414 kts 150°
2026-05-07 10:32 49.54253 9.48381 24750 ft 418 kts 150°
2026-05-07 10:32 49.51767 9.50644 25210 ft 421 kts 150°
2026-05-07 10:32 49.49232 9.52953 25674 ft 424 kts 150°
2026-05-07 10:33 49.46682 9.55278 26135 ft 426 kts 149°
2026-05-07 10:33 49.44115 9.57619 26589 ft 429 kts 149°
2026-05-07 10:33 49.41536 9.59968 27031 ft 431 kts 149°
2026-05-07 10:33 49.38972 9.62297 27476 ft 434 kts 149°
2026-05-07 10:34 49.36354 9.64672 27898 ft 436 kts 149°
2026-05-07 10:34 49.33833 9.67310 28326 ft 438 kts 141°
2026-05-07 10:34 49.31615 9.70451 28710 ft 440 kts 134°
2026-05-07 10:34 49.29441 9.73798 29118 ft 443 kts 134°
2026-05-07 10:35 49.27255 9.77144 29524 ft 445 kts 134°
2026-05-07 10:35 49.25048 9.80504 29921 ft 447 kts 134°
2026-05-07 10:35 49.22856 9.83833 30207 ft 451 kts 134°
2026-05-07 10:35 49.20619 9.87230 30486 ft 454 kts 134°
2026-05-07 10:36 49.18366 9.90650 30783 ft 456 kts 134°
2026-05-07 10:36 49.16874 9.92912 30978 ft 457 kts 135°
2026-05-07 10:36 49.13857 9.97477 31365 ft 460 kts 135°
2026-05-07 10:36 49.12319 9.99800 31558 ft 461 kts 135°
2026-05-07 10:37 49.10058 10.03214 31834 ft 462 kts 135°
2026-05-07 10:37 49.07772 10.06659 32207 ft 461 kts 136°
2026-05-07 10:37 49.04737 10.11193 32723 ft 459 kts 137°
2026-05-07 10:37 49.03168 10.13465 33001 ft 458 kts 138°
2026-05-07 10:38 49.00865 10.16729 33414 ft 456 kts 139°
2026-05-07 10:38 48.98520 10.19998 33839 ft 454 kts 139°
2026-05-07 10:38 48.96226 10.23327 34243 ft 454 kts 134°
2026-05-07 10:38 48.94186 10.26927 34605 ft 453 kts 133°
2026-05-07 10:39 48.92136 10.30591 34913 ft 453 kts 132°
2026-05-07 10:39 48.90100 10.34251 35013 ft 451 kts 132°
2026-05-07 10:39 48.86101 10.41460 35040 ft 442 kts 132°
2026-05-07 10:40 48.82149 10.48537 35035 ft 441 kts 133°
2026-05-07 10:40 48.78170 10.55625 35037 ft 440 kts 133°
2026-05-07 10:41 48.74196 10.62697 35038 ft 439 kts 133°
2026-05-07 10:41 48.70230 10.69728 35040 ft 439 kts 133°
2026-05-07 10:42 48.66257 10.76750 35037 ft 439 kts 134°
2026-05-07 10:42 48.62304 10.83727 35032 ft 439 kts 133°
2026-05-07 10:43 48.58326 10.90745 35025 ft 439 kts 134°
2026-05-07 10:43 48.54336 10.97753 35010 ft 438 kts 134°
2026-05-07 10:44 48.50373 11.04701 35020 ft 438 kts 134°
2026-05-07 10:44 48.46396 11.11647 35019 ft 438 kts 134°
2026-05-07 10:45 48.42395 11.18609 35020 ft 438 kts 134°
2026-05-07 10:45 48.38409 11.25530 34997 ft 438 kts 134°
2026-05-07 10:46 48.34404 11.32468 35013 ft 438 kts 135°
2026-05-07 10:46 48.30410 11.39374 35019 ft 437 kts 135°
2026-05-07 10:47 48.26433 11.46235 35023 ft 437 kts 135°
2026-05-07 10:47 48.22425 11.53134 35025 ft 437 kts 135°
2026-05-07 10:48 48.18441 11.59960 35024 ft 437 kts 135°
2026-05-07 10:48 48.14440 11.66793 35016 ft 435 kts 136°
2026-05-07 10:49 48.10449 11.73602 35016 ft 434 kts 136°
2026-05-07 10:49 48.06495 11.80333 35013 ft 434 kts 136°
2026-05-07 10:50 48.02486 11.87138 35000 ft 433 kts 136°
2026-05-07 10:50 47.98487 11.93897 34998 ft 433 kts 136°
2026-05-07 10:51 47.94499 12.00626 34997 ft 433 kts 137°
2026-05-07 10:51 47.90524 12.07324 35012 ft 432 kts 137°
2026-05-07 10:52 47.86533 12.14039 35015 ft 431 kts 137°
2026-05-07 10:52 47.82571 12.20687 35016 ft 430 kts 137°
2026-05-07 10:53 47.78583 12.27362 35016 ft 430 kts 137°
2026-05-07 10:53 47.74625 12.33964 35003 ft 430 kts 137°
2026-05-07 10:54 47.70631 12.40596 34997 ft 430 kts 137°
2026-05-07 10:54 47.66671 12.47166 34997 ft 430 kts 137°
2026-05-07 10:55 47.62664 12.53801 34999 ft 430 kts 137°
2026-05-07 10:55 47.58642 12.60350 35004 ft 430 kts 138°
2026-05-07 10:56 47.54582 12.66808 34984 ft 429 kts 139°
2026-05-07 10:56 47.50495 12.73310 34976 ft 431 kts 139°
2026-05-07 10:57 47.46430 12.79798 34983 ft 432 kts 139°
2026-05-07 10:57 47.42374 12.86274 34988 ft 432 kts 139°
2026-05-07 10:58 47.38302 12.92753 34982 ft 433 kts 139°
2026-05-07 10:58 47.34185 12.99258 34969 ft 432 kts 139°
2026-05-07 10:59 47.30076 13.05729 34841 ft 432 kts 139°
2026-05-07 10:59 47.28050 13.08926 34607 ft 430 kts 139°
2026-05-07 10:59 47.26011 13.12151 34365 ft 428 kts 139°
2026-05-07 11:00 47.23985 13.15360 33845 ft 425 kts 140°
2026-05-07 11:00 47.21996 13.18501 33281 ft 421 kts 140°
2026-05-07 11:00 47.20010 13.21633 32749 ft 417 kts 140°
2026-05-07 11:00 47.18030 13.24735 32206 ft 413 kts 140°
2026-05-07 11:01 47.16059 13.27812 31683 ft 411 kts 141°
2026-05-07 11:01 47.14134 13.30821 31130 ft 408 kts 141°
2026-05-07 11:01 47.12201 13.33847 30654 ft 403 kts 141°
2026-05-07 11:01 47.10289 13.36834 30146 ft 400 kts 141°
2026-05-07 11:02 47.08377 13.39812 29579 ft 397 kts 142°
2026-05-07 11:02 47.06496 13.42736 29101 ft 390 kts 142°
2026-05-07 11:02 47.04670 13.45575 28631 ft 387 kts 142°
2026-05-07 11:02 47.02772 13.48505 28158 ft 402 kts 141°
2026-05-07 11:03 47.00832 13.51496 27685 ft 404 kts 141°
2026-05-07 11:03 46.98897 13.54488 27209 ft 404 kts 140°
2026-05-07 11:03 46.96967 13.57472 26739 ft 403 kts 140°
2026-05-07 11:03 46.95040 13.60454 26285 ft 401 kts 140°
2026-05-07 11:04 46.93128 13.63420 25808 ft 399 kts 140°
2026-05-07 11:04 46.91229 13.66369 25339 ft 396 kts 140°
2026-05-07 11:04 46.89360 13.69270 24863 ft 395 kts 140°
2026-05-07 11:04 46.87476 13.72179 24358 ft 392 kts 140°
2026-05-07 11:05 46.85594 13.75075 23862 ft 390 kts 140°
2026-05-07 11:05 46.83729 13.77939 23311 ft 388 kts 140°
2026-05-07 11:05 46.81892 13.80756 22779 ft 386 kts 139°
2026-05-07 11:05 46.80042 13.83592 22273 ft 384 kts 139°
2026-05-07 11:06 46.78198 13.86416 21766 ft 382 kts 139°
2026-05-07 11:06 46.76366 13.89217 21268 ft 380 kts 139°
2026-05-07 11:06 46.74543 13.92000 20776 ft 378 kts 138°
2026-05-07 11:06 46.72730 13.94768 20262 ft 376 kts 139°
2026-05-07 11:07 46.70948 13.97485 19730 ft 374 kts 139°
2026-05-07 11:07 46.69117 14.00267 19013 ft 380 kts 138°
2026-05-07 11:07 46.67315 14.03013 18783 ft 369 kts 138°
2026-05-07 11:07 46.65574 14.05673 18386 ft 364 kts 138°
2026-05-07 11:08 46.63828 14.08329 17890 ft 362 kts 138°
2026-05-07 11:08 46.62086 14.10969 17367 ft 359 kts 137°
2026-05-07 11:08 46.60359 14.13583 16844 ft 357 kts 138°
2026-05-07 11:08 46.58501 14.15918 16445 ft 347 kts 150°
2026-05-07 11:09 46.56444 14.17614 16319 ft 332 kts 156°
2026-05-07 11:09 46.54465 14.19156 16191 ft 321 kts 156°
2026-05-07 11:09 46.52516 14.20624 16059 ft 310 kts 157°
2026-05-07 11:09 46.50622 14.22046 15930 ft 301 kts 157°
2026-05-07 11:10 46.48797 14.23430 15783 ft 292 kts 157°
2026-05-07 11:10 46.47060 14.24771 15632 ft 277 kts 156°
2026-05-07 11:10 46.45392 14.26071 15268 ft 269 kts 157°
2026-05-07 11:10 46.43754 14.27356 14945 ft 266 kts 157°
2026-05-07 11:11 46.42120 14.28639 14648 ft 265 kts 157°
2026-05-07 11:11 46.40517 14.29890 14387 ft 265 kts 157°
2026-05-07 11:11 46.38898 14.31155 14133 ft 264 kts 157°
2026-05-07 11:11 46.37278 14.32420 13870 ft 263 kts 157°
2026-05-07 11:12 46.35670 14.33672 13552 ft 262 kts 157°
2026-05-07 11:12 46.34077 14.34908 13243 ft 262 kts 157°
2026-05-07 11:12 46.32468 14.36146 12952 ft 261 kts 157°
2026-05-07 11:12 46.30878 14.37365 12651 ft 253 kts 157°
2026-05-07 11:13 46.29359 14.38530 12365 ft 242 kts 157°
2026-05-07 11:13 46.27891 14.39656 12072 ft 236 kts 157°
2026-05-07 11:13 46.26492 14.40728 11825 ft 223 kts 157°
2026-05-07 11:13 46.25189 14.41846 11554 ft 214 kts 152°
2026-05-07 11:14 46.23950 14.43004 11266 ft 211 kts 152°
2026-05-07 11:14 46.22761 14.44254 10995 ft 212 kts 143°
2026-05-07 11:14 46.21676 14.45689 10674 ft 210 kts 143°
2026-05-07 11:14 46.20564 14.47079 10315 ft 210 kts 144°
2026-05-07 11:15 46.19459 14.48402 9979 ft 208 kts 146°
2026-05-07 11:15 46.18315 14.49680 9576 ft 207 kts 148°
2026-05-07 11:15 46.17168 14.50930 9129 ft 207 kts 148°
2026-05-07 11:15 46.16015 14.52179 8772 ft 206 kts 148°
2026-05-07 11:16 46.14872 14.53413 8414 ft 204 kts 146°
2026-05-07 11:16 46.13769 14.54696 8031 ft 204 kts 144°
2026-05-07 11:16 46.12719 14.56002 7679 ft 201 kts 144°
2026-05-07 11:16 46.11656 14.57320 7174 ft 201 kts 144°
2026-05-07 11:17 46.10585 14.58606 6672 ft 200 kts 144°
2026-05-07 11:17 46.09506 14.59880 6298 ft 200 kts 145°
2026-05-07 11:17 46.08444 14.61130 5922 ft 199 kts 145°
2026-05-07 11:17 46.07373 14.62390 5532 ft 198 kts 145°
2026-05-07 11:18 46.06309 14.63674 5153 ft 200 kts 138°
2026-05-07 11:18 46.05690 14.65463 4777 ft 206 kts 99°
2026-05-07 11:18 46.05947 14.67463 4377 ft 205 kts 60°
2026-05-07 11:18 46.06979 14.68810 4043 ft 200 kts 19°
2026-05-07 11:19 46.08297 14.68923 4006 ft 193 kts 344°
2026-05-07 11:19 46.09619 14.68507 4003 ft 195 kts 345°
2026-05-07 11:19 46.10939 14.68018 4005 ft 195 kts 331°
2026-05-07 11:19 46.11905 14.66734 4010 ft 188 kts 300°
2026-05-07 11:20 46.12573 14.65158 4002 ft 181 kts 297°
2026-05-07 11:20 46.13168 14.63664 3999 ft 161 kts 298°
2026-05-07 11:20 46.13803 14.62421 3933 ft 151 kts 307°
2026-05-07 11:20 46.14460 14.61274 3759 ft 149 kts 306°
2026-05-07 11:21 46.15081 14.60087 3588 ft 148 kts 301°
2026-05-07 11:21 46.15689 14.58859 3315 ft 153 kts 300°
2026-05-07 11:21 46.16306 14.57572 2966 ft 156 kts 299°
2026-05-07 11:21 46.16915 14.56299 2760 ft 147 kts 301°
2026-05-07 11:22 46.17524 14.55166 2551 ft 143 kts 305°
2026-05-07 11:22 46.18143 14.54081 2360 ft 136 kts 304°
2026-05-07 11:22 46.18704 14.52969 2149 ft 135 kts 300°
2026-05-07 11:22 46.19227 14.51818 1977 ft 141 kts 301°
2026-05-07 11:23 46.19798 14.50698 1800 ft 137 kts 306°
2026-05-07 11:23 46.20368 14.49635 1599 ft 131 kts 306°
2026-05-07 11:23 46.20734 14.48927 1493 ft 132 kts 307°
2026-05-07 11:23 46.21283 14.47867 1321 ft 130 kts 307°
2026-05-07 11:24 46.21969 14.46538 1229 ft 107 kts 307°
2026-05-07 11:24 46.22222 14.46045 1241 ft 74 kts 307°
2026-05-07 11:24 46.22426 14.45654 1244 ft 25 kts 307°
2026-05-07 11:24 46.22541 14.45480 1248 ft 25 kts 318°
2026-05-07 11:25 46.22682 14.45349 1263 ft 22 kts 338°
2026-05-07 11:25 46.22799 14.45320 1258 ft 12 kts 352°
2026-05-07 11:25 46.22843 14.45318 1259 ft 4 kts 12°
2026-05-07 11:25 46.22857 14.45339 1262 ft 3 kts 42°
2026-05-07 11:26 46.22885 14.45361 1263 ft 6 kts 29°
2026-05-07 11:26 46.22916 14.45391 1262 ft 5 kts 36°
2026-05-07 11:26 46.22944 14.45412 1258 ft 4 kts 13°
2026-05-07 11:26 46.22966 14.45428 1268 ft 3 kts 36°
2026-05-07 11:27 46.22984 14.45446 1258 ft 3 kts 36°
2026-05-07 11:27 46.22999 14.45462 1265 ft 3 kts 36°
2026-05-07 11:27 46.23003 14.45467 1264 ft 0 kts 36°